TimeEST,TemperatureF,Dew PointF,Humidity,Sea Level PressureIn,VisibilityMPH,Wind Direction,Wind SpeedMPH,Gust SpeedMPH,PrecipitationIn,Events,Conditions,WindDirDegrees,DateUTC
12:54 AM,19.0,12.0,74,30.32,5.0,North,4.6,-,0.00,Snow,Light Snow,350,2012-11-30 05:54:00
1:09 AM,17.6,10.4,73,30.33,2.5,North,10.4,-,0.00,Snow,Light Snow,350,2012-11-30 06:09:00
1:27 AM,17.6,8.6,68,30.34,5.0,NNW,8.1,-,0.00,Snow,Light Snow,340,2012-11-30 06:27:00
1:54 AM,15.1,8.1,74,30.39,4.0,NNW,12.7,-,0.00,Snow,Light Snow,340,2012-11-30 06:54:00
2:54 AM,12.0,5.0,73,30.43,10.0,NNW,15.0,-,0.00,,Overcast,340,2012-11-30 07:54:00
3:37 AM,10.4,3.2,73,30.40,10.0,NE,3.5,-,N/A,,Scattered Clouds,40,2012-11-30 08:37:00
3:54 AM,10.0,3.0,73,30.45,10.0,NNE,3.5,-,N/A,,Clear,20,2012-11-30 08:54:00
4:54 AM,6.1,1.9,83,30.48,10.0,NNE,6.9,-,N/A,,Clear,20,2012-11-30 09:54:00
5:54 AM,3.0,-0.0,87,30.51,10.0,Calm,Calm,-,N/A,,Clear,0,2012-11-30 10:54:00
6:54 AM,1.0,-2.0,87,30.54,10.0,Calm,Calm,-,N/A,,Clear,0,2012-11-30 11:54:00
7:54 AM,1.9,-0.9,88,30.57,9.0,Calm,Calm,-,N/A,,Clear,0,2012-11-30 12:54:00
8:54 AM,3.9,1.0,88,30.58,10.0,Calm,Calm,-,N/A,,Clear,0,2012-11-30 13:54:00
9:54 AM,7.0,5.0,92,30.59,10.0,Calm,Calm,-,N/A,,Clear,0,2012-11-30 14:54:00
10:54 AM,12.0,3.9,70,30.59,10.0,Calm,Calm,-,N/A,,Clear,0,2012-11-30 15:54:00
11:54 AM,14.0,3.9,64,30.58,10.0,North,3.5,-,N/A,,Clear,10,2012-11-30 16:54:00
12:54 PM,17.1,6.1,62,30.56,10.0,Calm,Calm,-,N/A,,Clear,0,2012-11-30 17:54:00
1:54 PM,17.1,3.0,54,30.57,10.0,Calm,Calm,-,N/A,,Clear,0,2012-11-30 18:54:00
2:54 PM,16.0,3.0,57,30.57,10.0,Calm,Calm,-,N/A,,Clear,0,2012-11-30 19:54:00
3:54 PM,14.0,6.1,71,30.57,10.0,Calm,Calm,-,N/A,,Clear,0,2012-11-30 20:54:00
4:54 PM,10.0,6.1,84,30.59,9.0,Calm,Calm,-,N/A,,Clear,0,2012-11-30 21:54:00
5:54 PM,8.1,3.9,83,30.61,10.0,Calm,Calm,-,N/A,,Clear,0,2012-11-30 22:54:00
7:54 PM,6.1,1.9,83,30.63,10.0,Calm,Calm,-,N/A,,Clear,0,2012-12-01 00:54:00
8:54 PM,5.0,1.0,84,30.63,10.0,Calm,Calm,-,N/A,,Clear,0,2012-12-01 01:54:00
9:54 PM,5.0,-0.0,80,30.64,9.0,Calm,Calm,-,N/A,,Clear,0,2012-12-01 02:54:00
10:54 PM,6.1,3.0,87,30.64,10.0,Calm,Calm,-,N/A,,Overcast,0,2012-12-01 03:54:00